{"data":{"norad_id":61261,"epoch":"2026-09-21T10:58:05.651904Z","epoch_age_seconds":109441,"freshness":"FRESH","line1":"1 61261U 24175U   26264.45700986 -.00001532  00000+0 -34242-4 0  9995","line2":"2 61261  53.1623   1.3732 0001468 101.1377 258.9791 15.34371293111476","mean_motion":15.34371293,"eccentricity":0.0001468,"inclination_deg":53.1623,"raan_deg":1.3732,"arg_perigee_deg":101.1377,"mean_anomaly_deg":258.9791,"bstar":-3.4242e-5,"rev_number":11147,"period_min":93.84951390641,"perigee_km":461.7843169182,"apogee_km":463.79281266402,"semimajor_km":6840.9255647911,"source":"CELESTRAK","updated_at":"2026-09-22T09:00:49.352057Z"}}